Regional Weather Roundup
Issued by NWS

Home | Current Version | Previous Version | Graphics & Text | Print | Product List | Glossary On
Versions: 1 2 3 4 5 6 7 8 9 10 11 12 13 14 15 16 17 18 19 20 21 22 23 24 25 26 27 28 29 30 31 32 33 34 35 36 37 38 39 40 41 42 43 44 45 46 47 48 49 50
000
ASUS43 KDMX 240501
RWRIA

WEATHER ROUNDUP FOR IOWA
NATIONAL WEATHER SERVICE DES MOINES IA
1200 AM CDT WED MAY 24 2017

NOTE: "FAIR" INDICATES FEW OR NO CLOUDS BELOW 12,000 FEET WITH NO
SIGNIFICANT WEATHER AND/OR OBSTRUCTIONS TO VISIBILITY.

* - THESE STATIONS ARE NOT NWS STATIONS...THUS NOT UNDER NWS
QUALITY CONTROL.  THEY ALSO DO NOT REPORT WEATHER SUCH
AS PRECIPITATION OR FOG.

IAZ001>003-012>014-020>022-031>034-043>046-240600-
   NORTHWEST IOWA

CITY           SKY/WX    TMP DP  RH WIND       PRES   REMARKS
CARROLL *      CLOUDY    52  50  93 NW13      29.78F
CHEROKEE *     CLOUDY    49  49  97 N7        29.83S
DENISON *      CLOUDY    50  48  93 N3        29.82F
LE MARS *      CLEAR     50  48  93 N10       29.86S
ORANGE CITY *  CLEAR     48  46  93 N7        29.85S
SHELDON *      MOCLDY    48  45  87 N10         N/A
SIOUX CITY     PTCLDY    49  48  97 NW8       29.85F
SPENCER        CLOUDY    51  47  86 N8        29.82F
STORM LAKE *   CLOUDY    50  46  87 N9        29.81F
$$

IAZ055>058-069>071-079>083-090>094-240600-
   SOUTHWEST IOWA

CITY           SKY/WX    TMP DP  RH WIND       PRES   REMARKS
ATLANTIC *     CLOUDY    50  46  87 NW12      29.79S
AUDUBON *      DRIZZLE   48  46  93 NW6       29.79F
CLARINDA *     PTCLDY    50  46  87 NW8G15    29.80F
COUNCIL BLFS * PTCLDY    48  48 100 NW9       29.81F
CRESTON *      CLEAR     48  46  93 NW10      29.77F
HARLAN  *      CLOUDY    50  48  93 N9        29.83F
LAMONI         CLEAR     47  44  90 NW8       29.75F
RED OAK *      PTCLDY    50  48  93 NW8       29.80S
SHENANDOAH *   MOCLDY    50  46  87 NW9       29.81F
$$

IAZ047>049-059>061-072>074-084-240600-
   CENTRAL IOWA

CITY           SKY/WX    TMP DP  RH WIND       PRES   REMARKS
AMES           CLOUDY    51  49  92 N9        29.74F
ANKENY *       CLOUDY    50  48  93 NW9       29.74F
BOONE *        DRIZZLE   50  50 100 NW13      29.74F
CHARITON *     CLEAR     46  46 100 NW8       29.73F
DES MOINES     PTCLDY    51  47  86 NW7       29.74F
GRINNELL*      CLEAR     47  44  91 NW5       29.73F
KNOXVILLE *    CLEAR     46  45  93 NW7       29.71F
MARSHALLTOWN   CLOUDY    51  50  96 NW9       29.71F
NEWTON *       CLEAR     48  46  93 NW6       29.72S
PELLA *        CLEAR     49  46  92 NW8       29.73F
PERRY *        CLOUDY    51  49  91 N9        29.77S
$$

IAZ004>006-015-016-023>025-035-036-240600-
   NORTH CENTRAL IOWA

CITY           SKY/WX    TMP DP  RH WIND       PRES   REMARKS
ALGONA *       CLOUDY    52  50  93 N9        29.78F
CLARION *      CLOUDY    52  52 100 N12G22    29.76S
ESTHERVILLE    CLOUDY    49  48  97 NW10      29.80F
FORT DODGE *   CLOUDY    50  46  87 N8        29.78F
MASON CITY     CLOUDY    51  48  89 N14       29.76F
FOREST CITY *  DRIZZLE   52  45  76 N10       29.77S
WEBSTER CITY * CLOUDY    52  50  93 N14       29.73F
IOWA FALLS *   RAIN      51  49  93 N12       29.74F
$$

IAZ007>011-017>019-026>030-037>042-050>054-066-240600-
   NORTHEAST IOWA

CITY           SKY/WX    TMP DP  RH WIND       PRES   REMARKS
CEDAR RAPIDS   PTCLDY    47  47 100 NW6       29.68F
CHARLES CITY * CLOUDY    52  52 100 N13       29.73F
CLINTON *      MOCLDY    51  51 100 NW3       29.68F
DECORAH *      CLOUDY    52  50  93 N7        29.71F
DUBUQUE        CLOUDY    51  50  96 N5        29.67F
MONTICELLO *   CLOUDY    52  48  87 CALM      29.68F
OELWEIN *      MOCLDY    52  52 100 N5        29.70F
WATERLOO       CLOUDY    52  50  93 NW8       29.70F
$$

IAZ064-065-067-068-078-240600-
   EAST CENTRAL IOWA

CITY           SKY/WX    TMP DP  RH WIND       PRES   REMARKS
DAVENPORT      PTCLDY    52  49  89 W6        29.68F
IOWA CITY      PTCLDY    51  47  86 CALM      29.70F
MT. PLEASANT * CLEAR     51  46  83 W5        29.69F
MUSCATINE *    PTCLDY    52  48  87 CALM      29.69F
QUAD CITIES    PTCLDY    52  48  86 W3        29.67F
$$

IAZ062-063-075>077-085>089-095>099-240600-
   SOUTHEAST IOWA

CITY           SKY/WX    TMP DP  RH WIND       PRES   REMARKS
BURLINGTON     PTCLDY    52  48  86 NW5       29.69F
FAIRFIELD *    MOCLDY    50  45  81 W8        29.69F
FORT MADISON * MOCLDY    52  48  87 CALM      29.70F
KEOKUK *       MOCLDY    50  46  87 W3        29.70S
OSKALOOSA *      N/A     48  45  87 NW7       29.71F
OTTUMWA        CLEAR     46  45  96 NW7       29.71F
WASHINGTON *   CLOUDY    50  48  93 NW5       29.70F
$$

ABBREVIATIONS USED IN REMARKS
   TC - TEMPERATURES IN CELSIUS
  WCI - WIND CHILL INDEX
   HX - HEAT INDEX
  VSB - VISIBILITY
$$




USA.gov is the U.S. government's official web portal to all federal, state and local government web resources and services.